Back to catalog

COSMOS 1678 DEB *

AliveLEO
NORAD 18608·DEBRIS·🇷🇺 Russia

Launched Aug 29, 1985 from Plesetsk Cosmodrome

Loading…

Next Passes (next 24 hours)

TLE

FreshSource: Space-Track

Epoch: Sep 14, 2026, 11:15 UTC

1 18608U 85077K   26257.46934043  .00001396  00000-0  25437-3 0  9998
2 18608  74.0392 262.7109 0009601 254.0333 105.9779 14.67038717 92433

Track COSMOS 1678 DEB * in real time with AllMySat

Download on the App Store